Content
SEND FEEDBACK

Daily
Averages
Monthly
Summary
United States of America

TUCSON, ARIZONA


Home > North America > United States > Arizona
Elevation: 2584 feet     Latitude: 32 08N     Longitude: 110 56W

WEATHER
 
SELECT A DAY
Number of Records: 106,816;   Date Range: 1/1/02 - 8/12/14
 
SHARE

PRINT THIS DATA

[ ← Previous Day ]
WEATHER ALMANAC - APRIL 8, 2013
[ Next Day → ]
[ °C ]   °F
Weather ElementAverageHighLow
Temperature71.5 °F82.9 °F (2:53 pm)48.2 °F (11:51 pm)
Dewpoint33 °F46.4 °F (11:51 pm)23 °F (3:53 pm)
Humidity28.2 %93 % (11:51 pm)11 % (3:53 pm)
Barometer29.53 in29.73 in (3:53 am)29.34 in (5:53 pm)
Wind Speed20.6 mph32.2 mph (11:53 am)
Wind Gust47.2 mph (11:15 am)
Weather ElementAverage
Visibility8.8 mi
Wind DirectionSSW (215.6 °)

Weather ElementTotal
Precipitation0.11 in
Cooling Degree Days0.6 (Base 65)
Growing Degree Days15.6 (Base 50)
Averaged from 34 records on April 8, 2013
WEATHER CONDITIONS BREAKOUT
WIND DIRECTION BREAKOUT
WEATHER BY HOUR - APRIL 8, 2013
[ °C ]   °F
Local TimeTemperatureDewpointHumidityBarometerVisibilityWind DirectionWind SpeedGust SpeedPrecipitationEventsConditions
1:53 AM66.9 °F34.0 °F30 %29.66 in10.0 miSouth (180°)6.9 mphClear
2:53 AM64.9 °F34.0 °F32 %29.63 in10.0 miSouth (190°)6.9 mphClear
3:53 AM62.6 °F33.8 °F34 %29.73 in10.0 miSouth (180°)9.2 mphClear
4:53 AM63.0 °F33.1 °F33 %29.60 in10.0 miESE (110°)6.9 mphClear
5:53 AM64.0 °F33.1 °F31 %29.61 in10.0 miESE (110°)5.8 mphClear
6:53 AM64.9 °F36.0 °F34 %29.61 in10.0 miSSW (210°)5.8 mphClear
7:53 AM70.0 °F37.0 °F30 %29.60 in10.0 miSouth (190°)13.8 mph27.6 mphClear
8:53 AM73.0 °F36.0 °F26 %29.57 in10.0 miSouth (190°)20.7 mph29.9 mphClear
9:53 AM75.9 °F35.1 °F23 %29.54 in10.0 miSSW (210°)24.2 mphClear
10:53 AM78.1 °F34.0 °F20 %29.53 in6.0 miSSW (210°)26.5 mph38.0 mphHaze
11:15 AM80.1 °F30.0 °F16 %29.62 in2.5 miSSW (210°)29.9 mph47.2 mphHaze
11:25 AM81.0 °F30.9 °F16 %29.62 in10.0 miSSW (210°)25.3 mph41.4 mphMostly Cloudy
11:46 AM81.0 °F32.0 °F17 %29.61 in10.0 miSSW (200°)31.1 mph42.6 mphScattered Clouds
11:53 AM81.0 °F32.0 °F17 %29.47 in10.0 miSSW (210°)32.2 mph43.7 mphMostly Cloudy
12:14 PM82.0 °F32.0 °F16 %29.59 in7.0 miSSW (200°)27.6 mph44.9 mphMostly Cloudy
12:24 PM82.0 °F30.9 °F16 %29.59 in9.0 miSW (220°)32.2 mph43.7 mphScattered Clouds
12:53 PM82.0 °F33.1 °F17 %29.46 in9.0 miSSW (210°)32.2 mph43.7 mphScattered Clouds
1:53 PM82.0 °F36.0 °F19 %29.45 in10.0 miSSW (200°)28.8 mph44.9 mphPartly Cloudy
2:53 PM82.9 °F25.0 °F12 %29.40 in9.0 miSSW (210°)31.1 mph43.7 mphScattered Clouds
3:53 PM82.0 °F23.0 °F11 %29.35 in10.0 miSSW (200°)32.2 mph43.7 mphPartly Cloudy
4:53 PM80.1 °F30.0 °F16 %29.35 in10.0 miSW (220°)25.3 mph43.7 mphClear
5:53 PM77.0 °F33.1 °F20 %29.34 in6.0 miSSW (200°)25.3 mph43.7 mphHaze
6:08 PM75.9 °F32.0 °F20 %29.46 in9.0 miSSW (210°)19.6 mph36.8 mphMostly Cloudy
6:22 PM75.0 °F32.0 °F21 %29.45 in10.0 miSSW (200°)21.9 mph34.5 mphMostly Cloudy
6:35 PM73.9 °F30.9 °F21 %29.46 in5.0 miSSW (210°)20.7 mph34.5 mphHaze
6:53 PM73.0 °F30.9 °F21 %29.37 in9.0 miSW (220°)23.0 mph38.0 mphMostly Cloudy
7:00 PM73.0 °F30.9 °F21 %29.48 in10.0 miWSW (240°)13.8 mph32.2 mphScattered Clouds
7:53 PM71.1 °F33.1 °F25 %29.39 in10.0 miSSW (210°)19.6 mph28.8 mphScattered Clouds
8:53 PM66.9 °F23.0 °F19 %29.42 in10.0 miSW (230°)20.7 mph32.2 mphClear
9:53 PM64.9 °F26.1 °F23 %29.47 in10.0 miWest (260°)13.8 mph23.0 mphOvercast
10:53 PM53.1 °F39.0 °F59 %29.54 in9.0 miNNW (330°)28.8 mph38.0 mphOvercast
11:00 PM52.0 °F39.9 °F63 %29.65 in9.0 miWNW (300°)20.7 mph38.0 mphOvercast
11:51 PM48.2 °F46.4 °F93 %29.67 in5.0 miNNW (330°)9.2 mph0.05 inRainRain
11:53 PM48.9 °F45.0 °F86 %29.58 in5.0 miNW (320°)8.1 mph0.06 inRainLight Rain
Hourly data recorded from KTUS, located miles away from Tucson, Arizona







STORIES FROM OUR PARTNERS